Location: Baumgarten
(49.0970°N, 12.7493°E)
Time: 17:40:58
(UTC+00:00)

USA 267 - Pass Details

Date: 05 July 2020
Orbit: 1102 x 1106 km, 123.0° (Epoch: 09 August)

Event Time Altitude Azimuth Distance (km) Brightness Sun altitude
Exits shadow 21:33:57 17° 132° (SE) 2,456 4.6 -14.9°
Maximum altitude 21:39:09 76° 216° (SW) 1,135 3.2 -15.2°
Drops below altitude 10° 21:45:43 10° 303° (WNW) 2,966 6.3 -15.6°
Sets 21:48:13 0° 305° (NW) 3,927 7.1 -15.7°
